Location: Newark
(49.8348°N, 24.0280°E)
Time: 01:42:07
(UTC+00:00)

S-56A Canister/Altair - Pass Details

Date: 31 January 2020
Orbit: 633 x 2500 km, 38.9° (Epoch: 25 February)

Event Time Altitude Azimuth Distance (km) Brightness Sun altitude
Rises 19:31:01 0° 258° (WSW) 4,126 11.9 -40.6°
Reaches altitude 10° 19:34:41 10° 248° (WSW) 2,849 10.8 -41.2°
Enters shadow 19:36:10 15° 239° (WSW) 2,372 10.3 -41.4°
Maximum altitude 19:39:57 26° 194° (SSW) 1,582 - -41.9°
Drops below altitude 10° 19:44:05 10° 137° (SE) 2,189 - -42.5°
Sets 19:46:31 0° 124° (SE) 2,999 - -42.9°
